Other Surface Observations
Issued by NWS Jacksonville, FL

Home | Current Version | Previous Version | Text Only | Print | Product List | Glossary On
Versions: 1 2 3 4 5 6 7 8 9 10 11 12 13 14 15 16 17 18 19 20 21 22 23 24 25 26 27 28 29 30 31 32 33 34 35 36 37 38 39 40 41 42 43 44 45 46 47 48 49 50
820
SXUS52 KJAX 240813
OSOJAX
OTHER SURFACE OBSERVATIONS
NATIONAL WEATHER SERVICE JACKSONVILLE FL
400 AM EDT TUE MAY 24 2016

FLZ020>025-030>033-035>038-040-240900-
...FLORIDA...

CITY           SKY/WX    TMP DP  RH WIND       PRES   REMARKS
CECIL FIELD    MOCLDY    70  57  64 CALM      30.04R
HERLONG FIELD  NOT AVBL
FERNANDINA BCH NOT AVBL
LAKE CITY      FAIR      61  57  88 CALM      30.03R
JUNIPER SPGS   NOT AVBL
BUNNELL        NOT AVBL
KEYSTONE HGTS  FAIR      61  57  88 CALM      30.03S
$$

GAZ132>136-149>154-162>166-240900-
...GEORGIA...

CITY           SKY/WX    TMP DP  RH WIND       PRES   REMARKS
JESUP          FAIR      54  52  94 CALM      30.04R
HOMERVILLE     FAIR      63  55  77 SE5       30.04R
SWAINSBORO     FAIR      61  55  82 CALM      30.05S
CORDELE        NOT AVBL
EASTMAN        PTSUNNY   59  59 100 CALM      30.06S
$$

PLEASE NOTE:  THESE OBSERVATIONS ARE NOT QUALITY CONTROLLED AND MAY
NOT BE AVAILABLE AT ALL TIMES.
$$




USA.gov is the U.S. government's official web portal to all federal, state and local government web resources and services.